Weather History for Iowa City, IA

Change the Weather History Date:

Thursday, June 6, 2013

  Actual Average Record
Temperature  
Mean Temperature 66 °F 69 °F  
Max Temperature 72 °F 79 °F 96 °F (1977)
Min Temperature 59 °F 59 °F 46 °F (2002)
Degree Days  
Heating Degree Days 0 1  
Month to date heating degree days 19 8  
Since 1 June heating degree days 19 8  
Since 1 July heating degree days 6447 6369  
Cooling Degree Days 1 5  
Month to date cooling degree days 3 28  
Year to date cooling degree days 90 89  
Since 1 June cooling degree days 3 28  
Growing Degree Days 15 (Base 50)    
Moisture  
Dew Point 58 °F    
Average Humidity 79    
Maximum Humidity 97    
Minimum Humidity 61    
Precipitation  
Precipitation T in 0.15 in 1.56 in (2006)
Month to date precipitation 0.13 0.92  
Year to date precipitation 21.37 13.01  
Sea Level Pressure  
Sea Level Pressure 29.91 in    
Wind  
Wind Speed 5 mph (North)    
Max Wind Speed 13 mph    
Max Gust Speed 17 mph    
Visibility 7 miles    
Events      
T = Trace of Precipitation, MM = Missing Value Source: NWS Daily Summary

Daily Weather History Graph

Daily Weather History Graph

Search for Another Location

Airport:

Trip Planner

Search our weather history database for the weather conditions in past years. The results will help you decide how hot, cold, wet, or windy it might be!

Date:

Astronomy

Jun. 06, 2013 Rise Set
Actual Time 5:32 AM CDT 8:37 PM CDT
Civil Twilight 4:58 AM CDT 9:11 PM CDT
Nautical Twilight 4:15 AM CDT 9:54 PM CDT
Astronomical Twilight 3:24 AM CDT 10:45 PM CDT
Moon 4:15 AM CDT (6/6) 6:58 PM CDT (6/6)
Length of Visible Light 16h 12m
Length of Day
15h 05m
Waning Crescent, 3% of the Moon is Illuminated
Jun 6
Waning Crescent
Jun 8
New
Jun 16
First Quarter
Jun 23
Full
Jun 29
Last Quarter

Hourly Weather History & Observations

Time (CDT) Temp. Dew Point Humidity Pressure Visibility Wind Dir Wind Speed Gust Speed Precip Events Conditions
12:16 AM 62.6 °F 59.0 °F 88% 29.94 in 7.0 mi ENE 3.5 mph - N/A   Overcast
12:52 AM 61.0 °F 59.0 °F 93% 29.93 in 6.0 mi Calm Calm - N/A   Mostly Cloudy
1:11 AM 60.8 °F 59.0 °F 94% 29.94 in 6.0 mi Calm Calm - N/A   Mostly Cloudy
1:20 AM 60.8 °F 59.0 °F 94% 29.94 in 6.0 mi Calm Calm - N/A   Mostly Cloudy
1:52 AM 61.0 °F 59.0 °F 93% 29.92 in 5.0 mi Calm Calm - N/A   Overcast
2:52 AM 61.0 °F 59.0 °F 93% 29.91 in 5.0 mi Calm Calm - N/A   Overcast
3:52 AM 60.1 °F 59.0 °F 96% 29.89 in 5.0 mi Calm Calm - N/A   Overcast
4:52 AM 59.0 °F 57.9 °F 96% 29.88 in 4.0 mi Calm Calm - N/A   Mostly Cloudy
5:11 AM 59.0 °F 57.2 °F 94% 29.89 in 4.0 mi Calm Calm - N/A   Mostly Cloudy
5:52 AM 59.0 °F 57.9 °F 96% 29.90 in 3.0 mi WNW 3.5 mph - N/A   Overcast
5:59 AM 60.8 °F 57.2 °F 88% 29.90 in 2.0 mi Calm Calm - N/A   Overcast
6:10 AM 59.0 °F 59.0 °F 100% 29.90 in 2.0 mi Calm Calm - N/A   Overcast
6:24 AM 59.0 °F 59.0 °F 100% 29.90 in 1.8 mi Calm Calm - N/A   Overcast
6:52 AM 60.1 °F 59.0 °F 96% 29.90 in 1.5 mi WNW 3.5 mph - N/A   Overcast
7:04 AM 59.0 °F 59.0 °F 100% 29.91 in 0.8 mi West 5.8 mph - N/A   Overcast
7:16 AM 59.0 °F 59.0 °F 100% 29.91 in 1.2 mi WNW 5.8 mph - N/A   Overcast
7:21 AM 59.0 °F 57.2 °F 94% 29.91 in 3.0 mi WNW 5.8 mph - N/A   Overcast
7:44 AM 60.8 °F 57.2 °F 88% 29.91 in 4.0 mi Calm Calm - N/A   Overcast
7:52 AM 60.1 °F 57.9 °F 93% 29.91 in 5.0 mi Calm Calm - N/A   Overcast
8:33 AM 62.6 °F 57.2 °F 82% 29.91 in 8.0 mi Calm Calm - N/A   Scattered Clouds
8:52 AM 64.0 °F 59.0 °F 84% 29.91 in 10.0 mi Calm Calm - N/A   Scattered Clouds
9:03 AM 64.4 °F 59.0 °F 83% 29.91 in 10.0 mi Calm Calm - N/A   Mostly Cloudy
9:10 AM 64.4 °F 57.2 °F 77% 29.91 in 10.0 mi Calm Calm - N/A   Mostly Cloudy
9:52 AM 66.0 °F 59.0 °F 78% 29.90 in 10.0 mi Variable 3.5 mph - N/A   Overcast
10:06 AM 66.2 °F 59.0 °F 78% 29.90 in 10.0 mi NW 3.5 mph - N/A   Overcast
10:18 AM 64.4 °F 57.2 °F 77% 29.90 in 10.0 mi West 3.5 mph - N/A   Overcast
10:45 AM 64.4 °F 57.2 °F 77% 29.90 in 10.0 mi NNW 9.2 mph - N/A   Overcast
10:52 AM 64.0 °F 57.9 °F 80% 29.90 in 10.0 mi NNW 10.4 mph - N/A   Overcast
11:52 AM 64.0 °F 59.0 °F 84% 29.91 in 7.0 mi North 5.8 mph - N/A   Overcast
12:12 PM 64.4 °F 59.0 °F 83% 29.90 in 7.0 mi North 4.6 mph - N/A   Overcast
12:24 PM 64.4 °F 59.0 °F 83% 29.90 in 8.0 mi North 4.6 mph - N/A   Overcast
12:52 PM 66.9 °F 59.0 °F 76% 29.89 in 10.0 mi North 4.6 mph - N/A   Overcast
1:52 PM 69.1 °F 57.0 °F 65% 29.90 in 10.0 mi North 10.4 mph - N/A   Overcast
2:52 PM 71.1 °F 57.0 °F 61% 29.90 in 10.0 mi North 8.1 mph - N/A   Mostly Cloudy
3:52 PM 66.9 °F 57.0 °F 70% 29.90 in 10.0 mi NNE 6.9 mph - N/A   Overcast
4:52 PM 68.0 °F 57.9 °F 70% 29.90 in 10.0 mi Calm Calm - N/A   Overcast
5:04 PM 66.2 °F 57.2 °F 73% 29.91 in 10.0 mi North 4.6 mph - N/A   Overcast
5:11 PM 68.0 °F 57.2 °F 68% 29.91 in 10.0 mi North 3.5 mph - N/A   Overcast
5:30 PM 68.0 °F 57.2 °F 68% 29.91 in 10.0 mi North 4.6 mph - N/A   Overcast
5:52 PM 68.0 °F 57.9 °F 70% 29.90 in 10.0 mi North 5.8 mph - N/A   Overcast
6:52 PM 66.9 °F 60.1 °F 79% 29.91 in 10.0 mi NE 5.8 mph - N/A   Overcast
7:52 PM 64.9 °F 59.0 °F 81% 29.91 in 10.0 mi NNE 4.6 mph - N/A   Mostly Cloudy
8:52 PM 62.1 °F 59.0 °F 90% 29.92 in 10.0 mi NNE 4.6 mph - 0.00 in   Mostly Cloudy
9:52 PM 61.0 °F 57.9 °F 90% 29.94 in 9.0 mi North 3.5 mph - N/A   Mostly Cloudy
10:52 PM 61.0 °F 57.0 °F 87% 29.94 in 9.0 mi NNE 8.1 mph - N/A   Overcast
11:52 PM 60.1 °F 57.9 °F 93% 29.95 in 7.0 mi NE 5.8 mph - N/A   Overcast